Погода в Усть-Хайрюзово

Россия / Камчатский край     57°05′23″N   156°44′09″E
темп.,
°C
ветер,
м/с
пор.,
м/с
влажн.,
%
обл.,
%
осадки,
мм/ч
давл.,
гПа
погр.,
м
26 февраля, пт
пт2600:00−18св588998 0.1 1008143
03:00−18св448892 0.0 100865
06:00−17ссв348796 0.0 100973
09:00−18ссв4587100 0.0 101178
12:00−17ссв5685100 0.0 1012213
15:00−15ссв788599 0.0 1012292
18:00−17ссв7108999 0.0 1013174
21:00−20ссв579277 0.0 101488
27 февраля, сб
сб2700:00−20ссв459181 0.0 101556
03:00−21ссв3490100 0.0 101537
06:00−21св2390100 0.0 101528
09:00−20ссв228990 0.0 101628
12:00−16ссв338471 0.0 1016141
15:00−13ссв448417 0.0 1016249
18:00−16ссв458826 0.0 101664
21:00−19ссв4487100 0.0 101737
28 февраля, вс
вс2800:00−18ссв448899 0.0 101650
03:00−21ссв459258 0.0 101550
06:00−21ссв449031 0.0 101438
09:00−21ссв67890 0.0 101377
12:00−16ссв710840 0.0 1012248
15:00−15ссв9138725 0.0 1010288
18:00−17ссв9149148 0.0 1008267
21:00−19ссв81493100 0.0 1008251
1 марта, пн
пн100:00−21ссв71397100 0.0 1006242
03:00−21ссв61097100 0.0 1004210
06:00−22ссв5897100 0.0 1003106
09:00−21ссв4796100 0.0 1004125
12:00−17св6890100 0.0 1003432
15:00−16ссв7986100 0.0 1003539
18:00−17ссв698999 0.0 1004242
21:00−20ссв5889100 0.0 1005122
2 марта, вт
вт200:00−21св4484100 0.0 100745
03:00−22св2383100 0.0 100820
06:00−22ссв2382100 0.0 101021
09:00−22ссв2383100 0.0 101322
12:00−18ссв2379100 0.0 1015241
15:00−16с2275100 0.0 1017456
18:00−18ююз1283100 0.0 102020
21:00−21ююв348244 0.0 102220